Date,TemperatureHighF,TemperatureAvgF,TemperatureLowF,DewpointHighF,DewpointAvgF,DewpointLowF,HumidityHigh,HumidityAvg,HumidityLow,PressureMaxIn,PressureMinIn,WindSpeedMaxMPH,WindSpeedAvgMPH,GustSpeedMaxMPH,PrecipitationSumIn
2013-4-1,67,57,53,57,53,49,98,87,61,30.13,30.02,16,1,16,0.25
2013-4-2,72,57,47,56,51,46,98,83,57,30.14,30.06,11,1,13,0.00
2013-4-3,81,57,49,58,51,47,97,85,35,30.10,29.96,17,1,17,0.00
2013-4-4,62,55,50,58,53,48,97,93,81,30.09,30.00,13,1,14,0.18
2013-4-5,66,58,53,57,53,50,98,86,62,30.16,30.09,10,1,15,0.02
2013-4-6,69,58,49,57,52,48,96,83,58,30.16,30.11,14,1,14,0.00
2013-4-7,67,57,52,55,51,48,93,81,58,30.16,29.86,10,2,13,0.02
2013-4-8,68,56,48,52,40,29,96,58,25,29.95,29.80,25,3,25,0.16
2013-4-9,76,61,45,45,37,29,87,47,19,30.02,29.94,21,2,21,0.00
2013-4-10,83,62,47,54,47,41,90,62,28,30.11,30.00,14,1,15,0.00
2013-4-11,67,56,46,52,49,43,93,79,56,30.05,29.84,13,1,15,0.00
2013-4-12,71,54,43,54,47,42,96,81,53,29.90,29.83,12,1,12,0.00
2013-4-13,68,54,45,52,47,43,97,79,54,29.88,29.81,15,1,15,0.00
2013-4-14,67,53,41,49,44,39,95,73,38,29.89,29.82,13,1,13,0.00
2013-4-15,61,52,41,49,42,31,96,70,42,29.93,29.83,24,3,24,0.02
2013-4-16,68,52,36,43,35,24,94,59,21,30.08,29.93,16,1,16,0.00
2013-4-17,72,58,44,41,32,25,81,42,18,30.19,30.08,18,1,18,0.00
2013-4-18,75,56,41,45,40,32,85,59,24,30.22,30.17,13,1,13,0.00
2013-4-19,78,58,44,51,44,38,90,65,31,30.21,30.05,11,0,11,0.00
2013-4-20,80,60,46,55,48,42,96,69,29,30.07,29.95,12,1,13,0.00
2013-4-21,87,64,47,54,47,39,89,60,22,30.00,29.91,9,0,9,0.00
2013-4-22,75,60,51,53,49,42,93,68,45,29.93,29.86,11,1,11,0.00
2013-4-23,67,54,48,53,50,47,98,85,62,29.93,29.84,12,2,14,0.00
2013-4-24,63,55,49,51,49,47,92,82,64,29.94,29.80,21,2,21,0.00
2013-4-25,70,59,49,53,50,46,92,73,50,30.11,29.93,14,2,14,0.00
2013-4-26,71,55,44,54,49,43,97,81,53,30.19,30.09,12,1,12,0.00
2013-4-27,73,57,49,56,50,47,95,80,55,30.19,30.05,12,1,12,0.00
2013-4-28,73,56,48,56,50,47,97,82,53,30.05,29.86,10,0,10,0.00
2013-4-29,85,63,48,60,51,46,97,70,33,29.86,29.75,11,1,14,0.00
2013-4-30,75,59,47,56,49,45,95,72,45,29.82,29.76,13,1,13,0.00